| time (UTC) | temp F | wind direction | speed MPH | gust MPH | rain 1hr in | rain 24hr in | rain mn in | humidity % | barometer mb |
| 20260902200003 | 95 | 202 | 5.0 | 15.0 | 0.00 | 0.03 | 0.03 | 49 | 1010.0 |
| 20260902195503 | 95 | 203 | 6.0 | 15.0 | 0.00 | 0.03 | 0.03 | 48 | 1010.0 |
| 20260902195003 | 94 | 210 | 7.0 | 16.0 | 0.00 | 0.03 | 0.03 | 50 | 1010.1 |
| 20260902194503 | 94 | 202 | 6.0 | 16.0 | 0.00 | 0.03 | 0.03 | 50 | 1010.1 |
| 20260902194213 | 93 | 191 | 5.0 | 12.0 | 0.00 | 0.03 | 0.03 | 52 | 1010.0 |
| 20260902193503 | 92 | 202 | 4.0 | 9.0 | 0.00 | 0.03 | 0.03 | 50 | 1010.3 |
| 20260902193003 | 93 | 221 | 4.0 | 9.0 | 0.00 | 0.03 | 0.03 | 51 | 1010.3 |
| 20260902192714 | 93 | 209 | 5.0 | 12.0 | 0.00 | 0.03 | 0.03 | 53 | 1010.4 |
| 20260902192004 | 92 | 203 | 6.0 | 18.0 | 0.00 | 0.03 | 0.03 | 50 | 1010.4 |
| 20260902191503 | 92 | 209 | 6.0 | 12.0 | 0.00 | 0.03 | 0.03 | 52 | 1010.4 |
| 20260902191213 | 92 | 204 | 6.0 | 12.0 | 0.00 | 0.03 | 0.03 | 52 | 1010.4 |
| 20260902190503 | 91 | 200 | 4.0 | 11.0 | 0.00 | 0.03 | 0.03 | 52 | 1010.3 |
| 20260902190004 | 91 | 205 | 4.0 | 11.0 | 0.00 | 0.03 | 0.03 | 53 | 1010.4 |
| 20260902185503 | 91 | 212 | 5.0 | 16.0 | 0.00 | 0.03 | 0.03 | 52 | 1010.5 |
| 20260902185004 | 91 | 199 | 6.0 | 16.0 | 0.00 | 0.03 | 0.03 | 54 | 1010.6 |
| 20260902184503 | 91 | 191 | 5.0 | 14.0 | 0.00 | 0.03 | 0.03 | 53 | 1010.7 |
| 20260902184213 | 90 | 191 | 5.0 | 14.0 | 0.00 | 0.03 | 0.03 | 54 | 1010.8 |
| 20260902183503 | 90 | 188 | 4.0 | 15.0 | 0.00 | 0.03 | 0.03 | 54 | 1010.8 |
| 20260902183003 | 90 | 185 | 6.0 | 15.0 | 0.00 | 0.03 | 0.03 | 55 | 1010.9 |
| 20260902182503 | 90 | 177 | 5.0 | 13.0 | 0.00 | 0.03 | 0.03 | 54 | 1010.9 |
| 20260902182004 | 90 | 181 | 5.0 | 14.0 | 0.00 | 0.03 | 0.03 | 57 | 1010.9 |
| 20260902181503 | 90 | 185 | 6.0 | 14.0 | 0.00 | 0.03 | 0.03 | 55 | 1011.0 |
| 20260902181003 | 90 | 180 | 6.0 | 14.0 | 0.00 | 0.03 | 0.03 | 55 | 1011.1 |
| 20260902180503 | 89 | 180 | 6.0 | 14.0 | 0.00 | 0.03 | 0.03 | 56 | 1011.1 |
| 20260902180005 | 88 | 188 | 4.0 | 9.0 | 0.00 | 0.03 | 0.03 | 59 | 1011.1 |
| 20260902175504 | 88 | 191 | 4.0 | 10.0 | 0.00 | 0.03 | 0.03 | 58 | 1011.1 |
| 20260902175004 | 88 | 185 | 5.0 | 10.0 | 0.00 | 0.03 | 0.03 | 59 | 1011.2 |
| 20260902174003 | 88 | 183 | 5.0 | 12.0 | 0.00 | 0.03 | 0.03 | 57 | 1011.4 |
| 20260902173714 | 88 | 185 | 5.0 | 12.0 | 0.00 | 0.03 | 0.03 | 57 | 1011.3 |
| 20260902173003 | 88 | 185 | 4.0 | 10.0 | 0.00 | 0.03 | 0.03 | 58 | 1011.4 |
| 20260902172503 | 88 | 192 | 4.0 | 10.0 | 0.00 | 0.03 | 0.03 | 56 | 1011.4 |
| 20260902172214 | 88 | 194 | 5.0 | 12.0 | 0.00 | 0.03 | 0.03 | 56 | 1011.4 |
| 20260902171503 | 89 | 199 | 5.0 | 13.0 | 0.00 | 0.03 | 0.03 | 54 | 1011.4 |
| 20260902171214 | 89 | 193 | 5.0 | 13.0 | 0.00 | 0.03 | 0.03 | 55 | 1011.5 |
| 20260902170503 | 89 | 204 | 5.0 | 11.0 | 0.00 | 0.03 | 0.03 | 54 | 1011.5 |
| 20260902170004 | 89 | 222 | 4.0 | 11.0 | 0.00 | 0.03 | 0.03 | 56 | 1011.5 |
| 20260902165503 | 88 | 216 | 4.0 | 11.0 | 0.00 | 0.03 | 0.03 | 56 | 1011.4 |
| 20260902165003 | 88 | 204 | 4.0 | 10.0 | 0.00 | 0.03 | 0.03 | 58 | 1011.5 |
| 20260902164503 | 87 | 198 | 4.0 | 10.0 | 0.00 | 0.03 | 0.03 | 56 | 1011.6 |
| 20260902164003 | 87 | 202 | 4.0 | 11.0 | 0.00 | 0.03 | 0.03 | 56 | 1011.5 |
| 20260902163504 | 87 | 205 | 4.0 | 11.0 | 0.00 | 0.03 | 0.03 | 56 | 1011.4 |
| 20260902163003 | 86 | 200 | 5.0 | 14.0 | 0.00 | 0.03 | 0.03 | 56 | 1011.5 |
| 20260902162504 | 87 | 193 | 5.0 | 15.0 | 0.00 | 0.03 | 0.03 | 57 | 1011.5 |
| 20260902162214 | 87 | 191 | 5.0 | 15.0 | 0.00 | 0.03 | 0.03 | 57 | 1011.5 |
| 20260902161503 | 86 | 212 | 5.0 | 11.0 | 0.00 | 0.03 | 0.03 | 57 | 1011.5 |
| 20260902161003 | 85 | 211 | 5.0 | 11.0 | 0.00 | 0.03 | 0.03 | 59 | 1011.5 |
| 20260902160503 | 85 | 209 | 5.0 | 11.0 | 0.00 | 0.03 | 0.03 | 58 | 1011.5 |
| 20260902160005 | 84 | 205 | 4.0 | 11.0 | 0.00 | 0.03 | 0.03 | 61 | 1011.5 |
| 20260902155503 | 84 | 202 | 5.0 | 11.0 | 0.00 | 0.03 | 0.03 | 58 | 1011.5 |
| 20260902155214 | 84 | 206 | 5.0 | 15.0 | 0.00 | 0.03 | 0.03 | 59 | 1011.6 |
| 20260902154503 | 83 | 194 | 5.0 | 16.0 | 0.00 | 0.03 | 0.03 | 60 | 1011.4 |
| 20260902154003 | 82 | 181 | 3.0 | 11.0 | 0.00 | 0.03 | 0.03 | 65 | 1011.5 |
| 20260902153503 | 82 | 168 | 3.0 | 10.0 | 0.00 | 0.03 | 0.03 | 68 | 1011.5 |
| 20260902153003 | 81 | 170 | 3.0 | 6.0 | 0.00 | 0.03 | 0.03 | 67 | 1011.6 |
| 20260902152504 | 81 | 169 | 3.0 | 6.0 | 0.00 | 0.03 | 0.03 | 68 | 1011.4 |
| 20260902152004 | 81 | 166 | 3.0 | 12.0 | 0.00 | 0.03 | 0.03 | 68 | 1011.5 |
| 20260902151503 | 81 | 166 | 3.0 | 12.0 | 0.00 | 0.03 | 0.03 | 68 | 1011.4 |
| 20260902151003 | 81 | 175 | 4.0 | 12.0 | 0.00 | 0.03 | 0.03 | 68 | 1011.4 |
| 20260902150503 | 80 | 181 | 4.0 | 12.0 | 0.00 | 0.03 | 0.03 | 67 | 1011.4 |
| 20260902150003 | 80 | 182 | 2.0 | 7.0 | 0.00 | 0.03 | 0.03 | 74 | 1011.5 |
| 20260902145503 | 79 | 178 | 2.0 | 4.0 | 0.02 | 0.03 | 0.03 | 77 | 1011.6 |
| 20260902145004 | 78 | 158 | 1.0 | 4.0 | 0.02 | 0.03 | 0.03 | 78 | 1011.4 |
| 20260902144503 | 77 | 132 | 0.0 | 2.0 | 0.02 | 0.03 | 0.03 | 79 | 1011.4 |
| 20260902144003 | 76 | 0 | 0.0 | 0.0 | 0.02 | 0.03 | 0.03 | 82 | 1011.5 |
| 20260902143504 | 76 | 132 | 1.0 | 5.0 | 0.02 | 0.03 | 0.03 | 81 | 1011.4 |
| 20260902142503 | 76 | 151 | 1.0 | 7.0 | 0.02 | 0.03 | 0.03 | 81 | 1011.4 |
| 20260902142004 | 75 | 250 | 1.0 | 3.0 | 0.02 | 0.03 | 0.03 | 79 | 1011.3 |
| 20260902141503 | 75 | 251 | 3.0 | 12.0 | 0.02 | 0.03 | 0.03 | 78 | 1011.3 |
| 20260902141003 | 75 | 198 | 4.0 | 14.0 | 0.02 | 0.03 | 0.03 | 77 | 1011.4 |
| 20260902140503 | 76 | 165 | 4.0 | 14.0 | 0.02 | 0.03 | 0.03 | 77 | 1011.1 |
| 20260902140003 | 77 | 172 | 4.0 | 10.0 | 0.02 | 0.03 | 0.03 | 76 | 1011.6 |
| 20260902135714 | 77 | 167 | 3.0 | 8.0 | 0.01 | 0.02 | 0.02 | 74 | 1011.9 |
| 20260902135215 | 78 | 164 | 3.0 | 7.0 | 0.00 | 0.01 | 0.01 | 71 | 1011.9 |
| 20260902134503 | 78 | 151 | 3.0 | 6.0 | 0.00 | 0.01 | 0.01 | 69 | 1011.5 |
| 20260902134003 | 78 | 141 | 2.0 | 6.0 | 0.00 | 0.01 | 0.01 | 69 | 1011.6 |
| 20260902133503 | 78 | 138 | 3.0 | 8.0 | 0.00 | 0.01 | 0.01 | 69 | 1011.8 |
| 20260902133004 | 78 | 145 | 4.0 | 8.0 | 0.00 | 0.01 | 0.01 | 68 | 1011.9 |
| 20260902132714 | 78 | 146 | 3.0 | 7.0 | 0.00 | 0.01 | 0.01 | 69 | 1011.9 |
| 20260902132004 | 78 | 141 | 3.0 | 6.0 | 0.00 | 0.01 | 0.01 | 69 | 1011.8 |
| 20260902131503 | 77 | 132 | 2.0 | 7.0 | 0.00 | 0.01 | 0.01 | 69 | 1011.9 |
| 20260902131003 | 77 | 118 | 1.0 | 7.0 | 0.00 | 0.01 | 0.01 | 71 | 1011.9 |
| 20260902130503 | 76 | 94 | 0.0 | 4.0 | 0.00 | 0.01 | 0.01 | 71 | 1012.1 |
| 20260902130213 | 76 | 0 | 0.0 | 0.0 | 0.00 | 0.01 | 0.01 | 72 | 1012.2 |
| 20260902125503 | 76 | 0 | 0.0 | 0.0 | 0.00 | 0.01 | 0.01 | 71 | 1012.1 |
| 20260902125003 | 76 | 0 | 0.0 | 0.0 | 0.00 | 0.01 | 0.01 | 70 | 1012.2 |
| 20260902124503 | 76 | 0 | 0.0 | 0.0 | 0.00 | 0.01 | 0.01 | 70 | 1012.0 |
| 20260902124212 | 76 | 34 | 0.0 | 2.0 | 0.00 | 0.01 | 0.01 | 70 | 1012.1 |
| 20260902123503 | 76 | 34 | 1.0 | 3.0 | 0.00 | 0.01 | 0.01 | 70 | 1012.0 |
| 20260902123003 | 76 | 34 | 1.0 | 3.0 | 0.00 | 0.01 | 0.01 | 69 | 1011.9 |
| 20260902122503 | 76 | 34 | 2.0 | 3.0 | 0.00 | 0.01 | 0.01 | 69 | 1011.9 |
| 20260902122003 | 76 | 34 | 1.0 | 3.0 | 0.00 | 0.01 | 0.01 | 69 | 1011.9 |
| 20260902121503 | 76 | 35 | 1.0 | 3.0 | 0.00 | 0.01 | 0.01 | 69 | 1011.8 |
| 20260902121003 | 75 | 35 | 0.0 | 2.0 | 0.00 | 0.01 | 0.01 | 69 | 1011.7 |
| 20260902120504 | 75 | 35 | 0.0 | 2.0 | 0.00 | 0.01 | 0.01 | 70 | 1011.6 |
| 20260902120214 | 75 | 35 | 0.0 | 2.0 | 0.00 | 0.01 | 0.01 | 69 | 1011.6 |
| 20260902115503 | 75 | 35 | 0.0 | 2.0 | 0.00 | 0.01 | 0.01 | 69 | 1011.5 |
| 20260902115008 | 76 | 34 | 0.0 | 3.0 | 0.00 | 0.01 | 0.01 | 68 | 1011.5 |
| 20260902114503 | 76 | 34 | 1.0 | 3.0 | 0.00 | 0.01 | 0.01 | 68 | 1011.4 |
| 20260902114004 | 76 | 34 | 2.0 | 4.0 | 0.00 | 0.01 | 0.01 | 68 | 1011.5 |
| 20260902113504 | 76 | 33 | 2.0 | 4.0 | 0.01 | 0.01 | 0.01 | 68 | 1011.4 |
| 20260902113003 | 76 | 32 | 2.0 | 4.0 | 0.01 | 0.01 | 0.01 | 69 | 1011.4 |
| 20260902112503 | 75 | 31 | 2.0 | 4.0 | 0.01 | 0.01 | 0.01 | 69 | 1011.4 |
| 20260902112003 | 75 | 30 | 1.0 | 4.0 | 0.01 | 0.01 | 0.01 | 70 | 1011.4 |
| 20260902111713 | 74 | 30 | 0.0 | 4.0 | 0.01 | 0.01 | 0.01 | 71 | 1011.4 |
| 20260902111003 | 74 | 0 | 0.0 | 0.0 | 0.01 | 0.01 | 0.01 | 72 | 1011.4 |
| 20260902110503 | 74 | 0 | 0.0 | 0.0 | 0.01 | 0.01 | 0.01 | 72 | 1011.4 |
| 20260902110006 | 74 | 0 | 0.0 | 0.0 | 0.01 | 0.01 | 0.01 | 71 | 1011.4 |
| 20260902105503 | 75 | 0 | 0.0 | 0.0 | 0.01 | 0.01 | 0.01 | 71 | 1011.5 |
| 20260902105003 | 75 | 0 | 0.0 | 0.0 | 0.01 | 0.01 | 0.01 | 71 | 1011.5 |
| 20260902104713 | 75 | 0 | 0.0 | 0.0 | 0.01 | 0.01 | 0.01 | 70 | 1011.4 |
| 20260902104214 | 75 | 0 | 0.0 | 0.0 | 0.01 | 0.01 | 0.01 | 69 | 1011.5 |
| 20260902103503 | 75 | 0 | 0.0 | 0.0 | 0.00 | 0.00 | 0.00 | 70 | 1011.5 |
| 20260902103003 | 75 | 0 | 0.0 | 0.0 | 0.00 | 0.00 | 0.00 | 69 | 1011.6 |
| 20260902102713 | 75 | 0 | 0.0 | 0.0 | 0.00 | 0.00 | 0.00 | 71 | 1011.6 |
| 20260902102003 | 75 | 0 | 0.0 | 0.0 | 0.00 | 0.00 | 0.00 | 69 | 1011.6 |
| 20260902101503 | 75 | 0 | 0.0 | 0.0 | 0.00 | 0.00 | 0.00 | 71 | 1011.7 |
| 20260902101003 | 75 | 0 | 0.0 | 0.0 | 0.00 | 0.00 | 0.00 | 70 | 1011.7 |
| 20260902100503 | 75 | 0 | 0.0 | 0.0 | 0.00 | 0.00 | 0.00 | 72 | 1011.9 |
| 20260902100003 | 75 | 0 | 0.0 | 0.0 | 0.00 | 0.00 | 0.00 | 72 | 1011.8 |
| 20260902095504 | 76 | 0 | 0.0 | 1.0 | 0.00 | 0.00 | 0.00 | 71 | 1011.7 |
| 20260902095003 | 76 | 82 | 1.0 | 2.0 | 0.00 | 0.00 | 0.00 | 72 | 1011.7 |
| 20260902094503 | 75 | 73 | 1.0 | 3.0 | 0.00 | 0.00 | 0.00 | 72 | 1011.8 |
| 20260902094214 | 75 | 67 | 1.0 | 3.0 | 0.00 | 0.00 | 0.00 | 72 | 1011.9 |
| 20260902093503 | 76 | 55 | 0.0 | 2.0 | 0.00 | 0.00 | 0.00 | 72 | 1011.9 |
| 20260902093003 | 76 | 55 | 1.0 | 4.0 | 0.00 | 0.00 | 0.00 | 72 | 1011.9 |
| 20260902092712 | 76 | 58 | 1.0 | 4.0 | 0.00 | 0.00 | 0.00 | 71 | 1011.9 |
| 20260902092213 | 76 | 69 | 1.0 | 4.0 | 0.00 | 0.00 | 0.00 | 70 | 1011.9 |
| 20260902091504 | 76 | 104 | 2.0 | 4.0 | 0.00 | 0.00 | 0.00 | 70 | 1011.8 |
| 20260902091213 | 77 | 125 | 1.0 | 3.0 | 0.00 | 0.00 | 0.00 | 69 | 1011.9 |
| 20260902090503 | 77 | 134 | 1.0 | 3.0 | 0.00 | 0.00 | 0.00 | 68 | 1011.9 |
| 20260902090004 | 78 | 139 | 1.0 | 3.0 | 0.00 | 0.00 | 0.00 | 67 | 1011.9 |
| 20260902085503 | 78 | 168 | 1.0 | 4.0 | 0.00 | 0.00 | 0.00 | 66 | 1011.8 |
| 20260902085003 | 78 | 196 | 2.0 | 8.0 | 0.00 | 0.00 | 0.00 | 65 | 1011.7 |
| 20260902084504 | 78 | 69 | 2.0 | 8.0 | 0.00 | 0.00 | 0.00 | 65 | 1011.9 |
| 20260902084003 | 78 | 44 | 3.0 | 6.0 | 0.00 | 0.00 | 0.00 | 66 | 1011.9 |
| 20260902083504 | 78 | 47 | 3.0 | 6.0 | 0.00 | 0.00 | 0.00 | 65 | 1012.1 |
| 20260902083003 | 78 | 49 | 3.0 | 10.0 | 0.00 | 0.00 | 0.00 | 64 | 1012.2 |
| 20260902082503 | 78 | 63 | 3.0 | 10.0 | 0.00 | 0.00 | 0.00 | 64 | 1012.0 |
| 20260902082003 | 78 | 69 | 2.0 | 9.0 | 0.00 | 0.00 | 0.00 | 68 | 1012.1 |
| 20260902081503 | 78 | 38 | 2.0 | 9.0 | 0.00 | 0.00 | 0.00 | 67 | 1011.8 |
| 20260902081003 | 78 | 347 | 2.0 | 5.0 | 0.00 | 0.00 | 0.00 | 66 | 1011.9 |
| 20260902080503 | 78 | 260 | 1.0 | 3.0 | 0.00 | 0.00 | 0.00 | 65 | 1011.9 |
| 20260902080003 | 78 | 206 | 0.0 | 3.0 | 0.00 | 0.00 | 0.00 | 65 | 1011.5 |
| 20260902075503 | 78 | 187 | 1.0 | 3.0 | 0.00 | 0.00 | 0.00 | 63 | 1011.3 |
| 20260902075003 | 78 | 191 | 1.0 | 5.0 | 0.00 | 0.00 | 0.00 | 63 | 1011.2 |
| 20260902074503 | 79 | 197 | 2.0 | 7.0 | 0.00 | 0.00 | 0.00 | 63 | 1011.1 |
| 20260902074003 | 79 | 207 | 3.0 | 7.0 | 0.00 | 0.00 | 0.00 | 63 | 1011.1 |
| 20260902073503 | 79 | 209 | 3.0 | 7.0 | 0.00 | 0.00 | 0.00 | 63 | 1011.1 |
| 20260902073004 | 79 | 199 | 2.0 | 6.0 | 0.00 | 0.00 | 0.00 | 63 | 1011.0 |
| 20260902072714 | 79 | 194 | 2.0 | 6.0 | 0.00 | 0.00 | 0.00 | 63 | 1011.1 |
| 20260902072003 | 79 | 207 | 3.0 | 7.0 | 0.00 | 0.00 | 0.00 | 62 | 1011.1 |
| 20260902071503 | 79 | 219 | 2.0 | 5.0 | 0.00 | 0.00 | 0.00 | 62 | 1011.1 |
| 20260902071003 | 80 | 227 | 3.0 | 6.0 | 0.00 | 0.00 | 0.00 | 62 | 1011.1 |
| 20260902070504 | 80 | 221 | 3.0 | 8.0 | 0.00 | 0.00 | 0.00 | 61 | 1011.1 |
| 20260902070005 | 80 | 215 | 3.0 | 8.0 | 0.00 | 0.00 | 0.00 | 61 | 1011.1 |
| 20260902065714 | 80 | 209 | 3.0 | 8.0 | 0.00 | 0.00 | 0.00 | 61 | 1011.2 |
| 20260902065003 | 80 | 206 | 3.0 | 9.0 | 0.00 | 0.00 | 0.00 | 61 | 1011.2 |
| 20260902064503 | 81 | 206 | 3.0 | 9.0 | 0.00 | 0.00 | 0.00 | 60 | 1011.2 |
| 20260902064003 | 81 | 204 | 3.0 | 7.0 | 0.00 | 0.00 | 0.00 | 60 | 1011.2 |
| 20260902063503 | 81 | 202 | 3.0 | 9.0 | 0.00 | 0.00 | 0.00 | 59 | 1011.2 |
| 20260902063003 | 81 | 197 | 4.0 | 11.0 | 0.00 | 0.00 | 0.00 | 59 | 1011.1 |
| 20260902062503 | 81 | 193 | 5.0 | 12.0 | 0.00 | 0.00 | 0.00 | 59 | 1011.1 |
| 20260902062008 | 81 | 186 | 4.0 | 12.0 | 0.00 | 0.00 | 0.00 | 59 | 1010.9 |
| 20260902061503 | 81 | 188 | 3.0 | 10.0 | 0.00 | 0.00 | 0.00 | 59 | 1010.9 |
| 20260902061003 | 82 | 196 | 4.0 | 10.0 | 0.00 | 0.00 | 0.00 | 59 | 1010.8 |
| 20260902060503 | 82 | 197 | 5.0 | 10.0 | 0.00 | 0.00 | 0.00 | 59 | 1010.8 |
| 20260902060003 | 82 | 196 | 3.0 | 10.0 | 0.00 | 0.00 | 0.00 | 59 | 1010.7 |
| 20260902055713 | 82 | 197 | 3.0 | 8.0 | 0.00 | 0.00 | 0.00 | 59 | 1010.7 |
| 20260902055004 | 82 | 204 | 3.0 | 8.0 | 0.00 | 0.00 | 0.00 | 60 | 1010.7 |
| 20260902054503 | 82 | 213 | 3.0 | 6.0 | 0.00 | 0.00 | 0.00 | 60 | 1010.7 |
| 20260902054003 | 82 | 208 | 3.0 | 8.0 | 0.00 | 0.00 | 0.00 | 59 | 1010.8 |
| 20260902053503 | 82 | 210 | 3.0 | 8.0 | 0.00 | 0.00 | 0.00 | 59 | 1010.8 |
| 20260902053003 | 82 | 207 | 3.0 | 6.0 | 0.00 | 0.00 | 0.00 | 59 | 1010.8 |
| 20260902052713 | 83 | 199 | 3.0 | 7.0 | 0.00 | 0.00 | 0.00 | 59 | 1010.8 |
| 20260902052003 | 83 | 184 | 3.0 | 8.0 | 0.00 | 0.00 | 0.00 | 58 | 1010.9 |
| 20260902051503 | 83 | 187 | 4.0 | 9.0 | 0.00 | 0.00 | 0.00 | 58 | 1010.9 |
| 20260902051003 | 83 | 181 | 4.0 | 10.0 | 0.00 | 0.00 | 0.00 | 58 | 1011.0 |
| 20260902050713 | 83 | 180 | 4.0 | 10.0 | 0.00 | 0.00 | 0.00 | 58 | 1010.9 |
| 20260902050007 | 83 | 185 | 4.0 | 9.0 | 0.00 | 0.00 | 0.00 | 58 | 1010.9 |
| 20260902045503 | 83 | 181 | 4.0 | 11.0 | 0.00 | 0.00 | 0.00 | 58 | 1011.0 |
| 20260902045003 | 84 | 177 | 4.0 | 11.0 | 0.00 | 0.00 | 0.00 | 58 | 1011.0 |
| 20260902044503 | 84 | 180 | 4.0 | 11.0 | 0.00 | 0.00 | 0.00 | 58 | 1010.9 |
| 20260902044003 | 84 | 181 | 4.0 | 10.0 | 0.00 | 0.00 | 0.00 | 58 | 1010.9 |
| 20260902043503 | 84 | 184 | 4.0 | 7.0 | 0.00 | 0.00 | 0.00 | 58 | 1011.0 |
| 20260902043214 | 84 | 181 | 4.0 | 10.0 | 0.00 | 0.00 | 0.00 | 58 | 1011.0 |
| 20260902042503 | 84 | 184 | 4.0 | 10.0 | 0.00 | 0.00 | 0.00 | 59 | 1011.0 |
| 20260902042213 | 84 | 184 | 3.0 | 9.0 | 0.00 | 0.00 | 0.00 | 59 | 1010.9 |
| 20260902041504 | 84 | 179 | 4.0 | 10.0 | 0.00 | 0.00 | 0.00 | 59 | 1010.9 |
| 20260902041003 | 84 | 177 | 4.0 | 9.0 | 0.00 | 0.00 | 0.00 | 59 | 1010.9 |
| 20260902040503 | 84 | 174 | 4.0 | 9.0 | 0.00 | 0.00 | 0.00 | 60 | 1011.0 |
| 20260902040003 | 84 | 178 | 4.0 | 9.0 | 0.00 | 0.00 | 0.00 | 60 | 1011.1 |
| 20260902035503 | 84 | 182 | 4.0 | 9.0 | 0.00 | 0.00 | 0.00 | 60 | 1010.9 |
| 20260902035004 | 84 | 181 | 3.0 | 7.0 | 0.00 | 0.00 | 0.00 | 61 | 1011.1 |
| 20260902034503 | 84 | 183 | 3.0 | 8.0 | 0.00 | 0.00 | 0.00 | 61 | 1011.0 |
| 20260902034003 | 84 | 182 | 3.0 | 8.0 | 0.00 | 0.00 | 0.00 | 61 | 1010.9 |
| 20260902033504 | 84 | 178 | 3.0 | 9.0 | 0.00 | 0.00 | 0.00 | 61 | 1011.0 |
| 20260902033003 | 84 | 177 | 3.0 | 9.0 | 0.00 | 0.00 | 0.00 | 61 | 1011.0 |
| 20260902032504 | 84 | 178 | 3.0 | 7.0 | 0.00 | 0.00 | 0.00 | 61 | 1011.0 |
| 20260902032003 | 85 | 172 | 3.0 | 7.0 | 0.00 | 0.00 | 0.00 | 61 | 1010.9 |
| 20260902031714 | 85 | 166 | 3.0 | 7.0 | 0.00 | 0.00 | 0.00 | 61 | 1010.9 |
| 20260902031003 | 85 | 148 | 2.0 | 7.0 | 0.00 | 0.00 | 0.00 | 61 | 1010.8 |
| 20260902030503 | 85 | 160 | 2.0 | 6.0 | 0.00 | 0.00 | 0.00 | 61 | 1010.8 |
| 20260902030003 | 85 | 169 | 3.0 | 6.0 | 0.00 | 0.00 | 0.00 | 60 | 1010.7 |
| 20260902025503 | 86 | 168 | 2.0 | 7.0 | 0.00 | 0.00 | 0.00 | 60 | 1010.7 |
| 20260902025004 | 86 | 162 | 2.0 | 7.0 | 0.00 | 0.00 | 0.00 | 60 | 1010.6 |
| 20260902024503 | 86 | 151 | 2.0 | 7.0 | 0.00 | 0.00 | 0.00 | 60 | 1010.6 |
| 20260902024213 | 86 | 150 | 2.0 | 7.0 | 0.00 | 0.00 | 0.00 | 60 | 1010.6 |
| 20260902023503 | 86 | 166 | 2.0 | 7.0 | 0.00 | 0.00 | 0.00 | 60 | 1010.5 |
| 20260902023003 | 86 | 168 | 2.0 | 7.0 | 0.00 | 0.00 | 0.00 | 60 | 1010.5 |
| 20260902022503 | 86 | 154 | 2.0 | 7.0 | 0.00 | 0.00 | 0.00 | 60 | 1010.4 |
| 20260902022003 | 86 | 157 | 2.0 | 7.0 | 0.00 | 0.00 | 0.00 | 60 | 1010.3 |
| 20260902021503 | 87 | 164 | 2.0 | 5.0 | 0.00 | 0.00 | 0.00 | 60 | 1010.3 |
| 20260902021003 | 87 | 167 | 3.0 | 5.0 | 0.00 | 0.00 | 0.00 | 60 | 1010.2 |
| 20260902020503 | 87 | 172 | 2.0 | 5.0 | 0.00 | 0.00 | 0.00 | 60 | 1010.1 |
| 20260902020003 | 87 | 159 | 1.0 | 5.0 | 0.00 | 0.00 | 0.00 | 60 | 1010.2 |
| 20260902015503 | 87 | 154 | 2.0 | 5.0 | 0.00 | 0.00 | 0.00 | 60 | 1010.1 |
| 20260902015003 | 88 | 160 | 2.0 | 6.0 | 0.00 | 0.00 | 0.00 | 60 | 1010.1 |
| 20260902014504 | 88 | 157 | 2.0 | 7.0 | 0.00 | 0.00 | 0.00 | 60 | 1010.0 |
| 20260902014213 | 88 | 157 | 3.0 | 7.0 | 0.00 | 0.00 | 0.00 | 59 | 1009.9 |
| 20260902013503 | 88 | 165 | 2.0 | 5.0 | 0.00 | 0.00 | 0.00 | 59 | 1009.7 |
| 20260902013003 | 88 | 167 | 2.0 | 6.0 | 0.00 | 0.00 | 0.00 | 59 | 1009.7 |
| 20260902012503 | 89 | 170 | 2.0 | 6.0 | 0.00 | 0.00 | 0.00 | 59 | 1009.6 |
| 20260902012003 | 89 | 172 | 1.0 | 5.0 | 0.00 | 0.00 | 0.00 | 58 | 1009.6 |
| 20260902011713 | 89 | 173 | 0.0 | 4.0 | 0.00 | 0.00 | 0.00 | 58 | 1009.6 |
| 20260902011003 | 89 | 175 | 0.0 | 4.0 | 0.00 | 0.00 | 0.00 | 58 | 1009.6 |
| 20260902010503 | 89 | 179 | 1.0 | 6.0 | 0.00 | 0.00 | 0.00 | 58 | 1009.6 |
| 20260902010003 | 90 | 176 | 2.0 | 6.0 | 0.00 | 0.00 | 0.00 | 57 | 1009.5 |
| 20260902005503 | 90 | 168 | 2.0 | 6.0 | 0.00 | 0.00 | 0.00 | 56 | 1009.5 |
| 20260902005003 | 90 | 169 | 2.0 | 6.0 | 0.00 | 0.00 | 0.00 | 56 | 1009.6 |
| 20260902004713 | 90 | 169 | 2.0 | 6.0 | 0.00 | 0.00 | 0.00 | 55 | 1009.5 |
| 20260902004214 | 91 | 170 | 2.0 | 6.0 | 0.00 | 0.00 | 0.00 | 54 | 1009.5 |
| 20260902003503 | 91 | 169 | 3.0 | 7.0 | 0.00 | 0.00 | 0.00 | 54 | 1009.5 |
| 20260902003003 | 92 | 170 | 3.0 | 7.0 | 0.00 | 0.00 | 0.00 | 53 | 1009.5 |
| 20260902002503 | 92 | 167 | 3.0 | 9.0 | 0.00 | 0.00 | 0.00 | 52 | 1009.5 |
| 20260902002003 | 92 | 175 | 3.0 | 9.0 | 0.00 | 0.00 | 0.00 | 52 | 1009.5 |
| 20260902001713 | 93 | 181 | 4.0 | 10.0 | 0.00 | 0.00 | 0.00 | 51 | 1009.6 |
| 20260902001214 | 93 | 184 | 4.0 | 10.0 | 0.00 | 0.00 | 0.00 | 51 | 1009.5 |
| 20260902000503 | 93 | 173 | 5.0 | 10.0 | 0.00 | 0.00 | 0.00 | 50 | 1009.6 |
| 20260902000003 | 93 | 182 | 4.0 | 12.0 | 0.00 | 0.00 | 0.00 | 49 | 1009.6 |
| 20260901235503 | 94 | 193 | 3.0 | 12.0 | 0.00 | 0.00 | 0.00 | 49 | 1009.6 |
| 20260901235214 | 94 | 198 | 3.0 | 8.0 | 0.00 | 0.00 | 0.00 | 50 | 1009.6 |
| 20260901234503 | 94 | 210 | 2.0 | 7.0 | 0.00 | 0.00 | 0.00 | 51 | 1009.7 |
| 20260901234003 | 94 | 203 | 3.0 | 9.0 | 0.00 | 0.00 | 0.00 | 51 | 1009.8 |
| 20260901233505 | 94 | 203 | 3.0 | 9.0 | 0.00 | 0.00 | 0.00 | 52 | 1010.0 |
| 20260901233003 | 94 | 219 | 4.0 | 9.0 | 0.00 | 0.00 | 0.00 | 51 | 1010.0 |
| 20260901232503 | 94 | 221 | 4.0 | 11.0 | 0.00 | 0.00 | 0.00 | 50 | 1009.9 |
| 20260901232213 | 94 | 220 | 4.0 | 11.0 | 0.00 | 0.00 | 0.00 | 51 | 1009.9 |
| 20260901231503 | 95 | 210 | 4.0 | 11.0 | 0.00 | 0.00 | 0.00 | 49 | 1009.9 |
| 20260901231213 | 95 | 209 | 4.0 | 11.0 | 0.00 | 0.00 | 0.00 | 50 | 1009.9 |
| 20260901230503 | 95 | 204 | 4.0 | 10.0 | 0.00 | 0.00 | 0.00 | 51 | 1009.9 |
| 20260901230004 | 95 | 200 | 4.0 | 10.0 | 0.00 | 0.00 | 0.00 | 51 | 1010.0 |
| 20260901225503 | 95 | 197 | 4.0 | 11.0 | 0.00 | 0.00 | 0.00 | 52 | 1010.1 |
| 20260901225003 | 95 | 201 | 4.0 | 11.0 | 0.00 | 0.00 | 0.00 | 51 | 1010.1 |
| 20260901224503 | 96 | 208 | 4.0 | 11.0 | 0.00 | 0.00 | 0.00 | 52 | 1010.1 |
| 20260901224003 | 96 | 210 | 5.0 | 11.0 | 0.00 | 0.00 | 0.00 | 50 | 1010.2 |
| 20260901223503 | 96 | 218 | 5.0 | 16.0 | 0.00 | 0.00 | 0.00 | 50 | 1010.2 |
| 20260901223213 | 96 | 218 | 5.0 | 16.0 | 0.00 | 0.00 | 0.00 | 50 | 1010.2 |
| 20260901222504 | 96 | 209 | 5.0 | 12.0 | 0.00 | 0.00 | 0.00 | 49 | 1010.2 |
| 20260901222213 | 96 | 213 | 4.0 | 12.0 | 0.00 | 0.00 | 0.00 | 49 | 1010.2 |
| 20260901221503 | 96 | 210 | 6.0 | 16.0 | 0.00 | 0.00 | 0.00 | 49 | 1010.2 |
| 20260901221003 | 96 | 199 | 5.0 | 11.0 | 0.00 | 0.00 | 0.00 | 48 | 1010.3 |
| 20260901220714 | 96 | 191 | 6.0 | 14.0 | 0.00 | 0.00 | 0.00 | 48 | 1010.3 |
| 20260901220003 | 96 | 188 | 6.0 | 20.0 | 0.00 | 0.00 | 0.00 | 47 | 1010.4 |
| 20260901215714 | 96 | 194 | 5.0 | 20.0 | 0.00 | 0.00 | 0.00 | 47 | 1010.4 |
| 20260901215003 | 96 | 192 | 5.0 | 12.0 | 0.00 | 0.00 | 0.00 | 50 | 1010.4 |
| 20260901214503 | 96 | 203 | 4.0 | 10.0 | 0.00 | 0.00 | 0.00 | 50 | 1010.4 |
| 20260901214003 | 96 | 206 | 5.0 | 13.0 | 0.00 | 0.00 | 0.00 | 50 | 1010.5 |
| 20260901213503 | 96 | 202 | 6.0 | 13.0 | 0.00 | 0.00 | 0.00 | 49 | 1010.5 |
| 20260901213003 | 96 | 201 | 5.0 | 13.0 | 0.00 | 0.00 | 0.00 | 48 | 1010.5 |
| 20260901212503 | 96 | 197 | 5.0 | 13.0 | 0.00 | 0.00 | 0.00 | 49 | 1010.6 |
| 20260901212004 | 96 | 182 | 5.0 | 13.0 | 0.00 | 0.00 | 0.00 | 51 | 1010.7 |
| 20260901211714 | 95 | 175 | 5.0 | 12.0 | 0.00 | 0.00 | 0.00 | 51 | 1010.7 |
| 20260901211213 | 95 | 176 | 6.0 | 13.0 | 0.00 | 0.00 | 0.00 | 52 | 1010.7 |
| 20260901210503 | 95 | 176 | 7.0 | 13.0 | 0.00 | 0.00 | 0.00 | 51 | 1010.8 |
| 20260901210003 | 95 | 181 | 6.0 | 15.0 | 0.00 | 0.00 | 0.00 | 52 | 1010.9 |
| 20260901205714 | 95 | 179 | 6.0 | 15.0 | 0.00 | 0.00 | 0.00 | 51 | 1010.9 |
| 20260901205003 | 95 | 177 | 6.0 | 15.0 | 0.00 | 0.00 | 0.00 | 51 | 1010.9 |
| 20260901204503 | 95 | 188 | 6.0 | 13.0 | 0.00 | 0.00 | 0.00 | 50 | 1011.0 |
| 20260901204003 | 94 | 193 | 6.0 | 13.0 | 0.00 | 0.00 | 0.00 | 52 | 1011.1 |
| 20260901203503 | 94 | 189 | 6.0 | 14.0 | 0.00 | 0.00 | 0.00 | 51 | 1011.2 |
| 20260901203213 | 94 | 185 | 6.0 | 14.0 | 0.00 | 0.00 | 0.00 | 52 | 1011.2 |
| 20260901202503 | 94 | 182 | 6.0 | 15.0 | 0.00 | 0.00 | 0.00 | 52 | 1011.3 |
| 20260901202213 | 94 | 185 | 6.0 | 15.0 | 0.00 | 0.00 | 0.00 | 53 | 1011.4 |
| 20260901201503 | 94 | 192 | 6.0 | 11.0 | 0.00 | 0.00 | 0.00 | 52 | 1011.4 |
| 20260901201214 | 94 | 188 | 6.0 | 15.0 | 0.00 | 0.00 | 0.00 | 52 | 1011.4 |
| 20260901200503 | 94 | 164 | 6.0 | 15.0 | 0.00 | 0.00 | 0.00 | 53 | 1011.6 |